FW1093 Weather Reports


Display with metric or nautical units.
time (UTC)temp
F
wind
direction
speed
MPH
gust
MPH
rain 1hr
in
rain 24hr
in
rain mn
in
humidity
%
barometer
mb
20260901194319 75 316 0.0 0.0 0.00 0.32 0.32 91 1015.5
20260901193336 75 315 0.0 0.0 0.00 0.32 0.32 91 1015.6
20260901192332 76 315 0.0 1.0 0.00 0.32 0.32 90 1015.4
20260901191323 75 356 0.0 1.0 0.00 0.32 0.32 93 1015.3
20260901190317 74 356 0.0 0.0 0.00 0.32 0.32 94 1015.3
20260901185337 74 356 0.0 0.0 0.00 0.32 0.32 94 1015.5
20260901184336 73 356 0.0 0.0 0.00 0.32 0.32 95 1015.6
20260901183330 73 356 0.0 1.0 0.00 0.32 0.32 95 1015.9
20260901182328 73 42 0.0 0.0 0.00 0.32 0.32 95 1015.8
20260901181322 73 42 0.0 0.0 0.00 0.32 0.32 95 1015.7
20260901180319 73 42 0.0 1.0 0.00 0.32 0.32 94 1015.8
20260901175315 73 42 0.0 1.0 0.00 0.32 0.32 94 1015.8
20260901174354 73 42 0.0 0.0 0.00 0.32 0.32 95 1015.8
20260901173328 73 42 0.0 1.0 0.00 0.32 0.32 95 1015.5
20260901172317 73 33 0.0 0.0 0.00 0.32 0.32 96 1015.5
20260901171315 73 33 0.0 1.0 0.00 0.32 0.32 97 1015.7
20260901170333 72 33 0.0 0.0 0.00 0.32 0.32 97 1015.6
20260901165325 72 33 0.0 1.0 0.00 0.32 0.32 97 1015.5
20260901164324 72 33 0.0 0.0 0.00 0.32 0.32 97 1015.7
20260901163318 71 33 0.0 1.0 0.00 0.32 0.32 97 1016.2
20260901162329 71 31 0.0 0.0 0.00 0.32 0.32 97 1016.2
20260901121342 68 171 0.0 0.0 0.00 0.23 0.23 97 1017.0
20260901120328 68 172 0.0 0.0 0.00 0.23 0.23 97 1017.1
20260901115336 68 172 0.0 0.0 0.00 0.23 0.23 97 1017.1
20260901114327 68 172 0.0 0.0 0.00 0.23 0.23 97 1017.1
20260901113317 68 172 0.0 0.0 0.00 0.23 0.23 97 1016.9
20260901112334 68 171 0.0 0.0 0.00 0.23 0.23 97 1016.9
20260901111325 68 172 0.0 0.0 0.00 0.23 0.23 97 1017.0
20260901110314 68 172 0.0 0.0 0.00 0.23 0.23 97 1017.0
20260901105330 67 172 0.0 0.0 0.00 0.23 0.23 97 1017.0
20260901104321 67 172 0.0 0.0 0.00 0.23 0.23 97 1017.0
20260901103357 67 172 0.0 0.0 0.00 0.23 0.23 97 1016.9
20260901102328 67 172 0.0 0.0 0.00 0.23 0.23 97 1016.9
20260901101347 67 172 0.0 0.0 0.00 0.23 0.23 97 1016.5
20260901100315 67 171 0.0 0.0 0.00 0.23 0.23 97 1016.8
20260901095324 67 171 0.0 0.0 0.00 0.23 0.23 97 1016.7
20260901094343 67 171 0.0 0.0 0.00 0.23 0.23 97 1016.8
20260901093311 67 172 0.0 0.0 0.00 0.23 0.23 97 1016.8
20260901092328 67 171 0.0 0.0 0.00 0.23 0.23 97 1017.0
20260901091317 67 172 0.0 0.0 0.00 0.23 0.23 97 1016.9
20260901090326 67 172 0.0 0.0 0.00 0.23 0.23 96 1016.8
20260901085341 67 172 0.0 0.0 0.00 0.23 0.23 96 1017.1
20260901084312 67 172 0.0 0.0 0.01 0.23 0.23 96 1017.2
20260901083320 67 172 0.0 0.0 0.04 0.23 0.23 96 1017.4
20260901082336 67 172 0.0 0.0 0.06 0.23 0.23 96 1017.5
20260901081326 67 172 0.0 0.0 0.08 0.23 0.23 96 1017.5
20260901080316 67 172 0.0 0.0 0.09 0.23 0.23 96 1017.5
20260901074319 67 172 0.0 0.0 0.11 0.22 0.22 96 1017.5
20260901073356 67 172 0.0 0.0 0.12 0.19 0.19 96 1017.6
20260901072325 67 172 0.0 0.0 0.14 0.17 0.17 96 1017.6
20260901071314 67 172 0.0 0.0 0.13 0.15 0.15 96 1017.6
20260901070323 67 172 0.0 0.0 0.12 0.14 0.14 96 1017.6
20260901065313 67 172 0.0 0.0 0.12 0.13 0.13 96 1017.8
20260901064322 67 172 0.0 0.0 0.11 0.11 0.11 96 1017.8
20260901063313 67 172 0.0 0.0 0.06 0.06 0.06 96 1017.9
20260901062350 67 172 0.0 0.0 0.03 0.03 0.03 96 1018.0
20260901061317 67 172 0.0 0.0 0.02 0.02 0.02 95 1018.0
20260901060333 67 172 0.0 0.0 0.02 0.02 0.02 95 1018.1
20260901055321 67 172 0.0 0.0 0.01 0.01 0.01 95 1018.2
20260901054331 67 172 0.0 0.0 0.00 0.00 0.00 95 1018.2
20260901053321 67 172 0.0 0.0 0.00 0.00 0.00 95 1018.2
20260901052329 67 172 0.0 0.0 0.00 0.00 0.00 95 1018.2
20260901051318 67 172 0.0 0.0 0.00 0.00 0.00 95 1018.4
20260901050328 67 172 0.0 0.0 0.00 0.00 0.00 95 1018.4
20260901045317 67 172 0.0 0.0 0.00 0.00 0.00 94 1018.5
20260901044355 67 172 0.0 0.0 0.00 0.00 0.00 94 1018.5
20260901043342 67 172 0.0 0.0 0.00 0.00 0.00 94 1018.5
20260901042336 67 172 0.0 0.0 0.00 0.00 0.00 94 1018.6
20260901041328 67 172 0.0 0.0 0.00 0.00 0.00 94 1018.7
20260901040338 67 172 0.0 0.0 0.00 0.00 0.00 94 1018.7
20260901035320 67 172 0.0 0.0 0.00 0.00 0.00 94 1018.6
20260901034331 67 172 0.0 0.0 0.00 0.00 0.00 94 1018.7
20260901033318 67 172 0.0 0.0 0.00 0.00 0.00 93 1018.7
20260901032333 67 172 0.0 0.0 0.00 0.00 0.00 93 1018.8
20260901031328 67 172 0.0 0.0 0.00 0.00 0.00 93 1019.0
20260901030316 67 172 0.0 0.0 0.00 0.00 0.00 93 1019.2
20260901025326 67 172 0.0 0.0 0.00 0.01 0.00 93 1019.3
20260901024317 68 172 0.0 0.0 0.00 0.01 0.00 93 1019.3
20260901023330 68 172 0.0 0.0 0.00 0.01 0.00 93 1019.2
20260901022320 68 172 0.0 0.0 0.00 0.01 0.00 92 1019.1
20260901021328 68 172 0.0 0.0 0.00 0.01 0.00 92 1019.2
20260901020317 68 172 0.0 0.0 0.00 0.01 0.00 92 1019.2
20260901015334 68 172 0.0 0.0 0.00 0.01 0.00 92 1019.3
20260901014322 68 172 0.0 0.0 0.00 0.01 0.00 91 1019.4
20260901013330 68 172 0.0 0.0 0.00 0.01 0.00 91 1019.4
20260901012347 68 172 0.0 0.0 0.00 0.01 0.00 90 1019.4
20260901011315 68 172 0.0 0.0 0.00 0.01 0.00 90 1019.6
20260901010349 68 172 0.0 0.0 0.00 0.01 0.00 89 1019.4
20260901005347 68 172 0.0 0.0 0.00 0.01 0.00 89 1019.5
20260901004314 68 172 0.0 0.0 0.00 0.01 0.00 89 1019.2
20260901003321 68 172 0.0 0.0 0.00 0.01 0.00 89 1019.2
20260901002329 68 172 0.0 0.0 0.00 0.01 0.00 89 1019.3
20260901001318 68 172 0.0 0.0 0.00 0.01 0.00 89 1019.2
20260901000325 68 172 0.0 0.0 0.00 0.01 0.00 88 1019.3
20260831235315 68 172 0.0 0.0 0.00 0.01 0.00 88 1019.2
20260831234334 68 172 0.0 0.0 0.00 0.01 0.00 88 1019.3
20260831233345 69 172 0.0 0.0 0.00 0.01 0.00 87 1019.4
20260831232313 69 172 0.0 0.0 0.00 0.01 0.00 87 1019.5
20260831231322 69 172 0.0 0.0 0.00 0.01 0.00 87 1019.6
20260831230358 69 172 0.0 0.0 0.00 0.01 0.00 87 1019.7
20260831225347 69 172 0.0 0.0 0.00 0.01 0.00 86 1019.7
20260831224315 70 172 0.0 0.0 0.00 0.01 0.00 86 1019.6
20260831223331 70 172 0.0 0.0 0.00 0.01 0.00 85 1019.8
20260831222319 70 172 0.0 0.0 0.00 0.01 0.00 86 1019.6
20260831221332 70 172 0.0 0.0 0.00 0.01 0.00 86 1019.8
20260831220322 70 172 0.0 0.0 0.00 0.01 0.00 85 1019.5
20260831215333 70 172 0.0 0.0 0.00 0.01 0.00 85 1019.6
20260831214323 71 172 0.0 0.0 0.00 0.01 0.00 85 1019.6
20260831213333 71 172 0.0 0.0 0.00 0.01 0.00 83 1019.6
20260831212320 71 172 0.0 0.0 0.00 0.01 0.00 83 1019.6
20260831211315 71 172 0.0 0.0 0.00 0.01 0.00 82 1019.5
20260831210323 72 172 0.0 0.0 0.00 0.01 0.00 81 1019.6
20260831205340 72 172 0.0 0.0 0.00 0.01 0.00 79 1019.6
20260831204328 72 172 0.0 0.0 0.00 0.01 0.00 78 1019.6
20260831203317 73 172 0.0 0.0 0.00 0.01 0.00 76 1019.5
20260831202325 73 172 0.0 0.0 0.00 0.01 0.00 73 1019.5
20260831201334 73 172 0.0 0.0 0.00 0.01 0.00 72 1019.6
20260831200323 74 172 0.0 0.0 0.00 0.01 0.00 71 1019.8
20260831195311 76 172 0.0 0.0 0.00 0.01 0.00 65 1019.8